Regional Weather Roundup
Issued by NWS

Home | Current Version | Previous Version | Graphics & Text | Print | Product List | Glossary On
Versions: 1 2 3 4 5 6 7 8 9 10 11 12 13 14 15 16 17 18 19 20 21 22 23 24 25 26 27 28 29 30 31 32 33 34 35 36 37 38 39 40 41 42 43 44 45 46 47 48 49 50
000
ASUS43 KFSD 060810
RWRSD

WEATHER ROUNDUP FOR SOUTH DAKOTA
NATIONAL WEATHER SERVICE SIOUX FALLS SD
200 AM CST SAT FEB 06 2016

NOTE: "FAIR" INDICATES FEW OR NO CLOUDS BELOW 12,000 FEET WITH NO
SIGNIFICANT WEATHER AND/OR OBSTRUCTIONS TO VISIBILITY.


SDZ001>005-009-010-012>017-060900-
NORTHWEST AND NORTH CENTRAL SOUTH DAKOTA

CITY           SKY/WX    TMP DP  RH WIND       PRES   REMARKS
BUFFALO          N/A     31  20  63 W14       29.95F WCI  21
FAITH            N/A     28  19  69 SW14      30.04F WCI  17
MOBRIDGE       CLOUDY    27  22  81 SE8       30.01F WCI  19
$$

SDZ012>016-024>037-041>051-057-063-072>074-060900-
SOUTHWEST AND SOUTH CENTRAL SOUTH DAKOTA

CITY           SKY/WX    TMP DP  RH WIND       PRES   REMARKS
RAPID CTY ARPT CLOUDY    26  16  65 CALM      30.09F
PIERRE         CLEAR     28  23  81 SW13      30.09F WCI  17
CUSTER         CLOUDY    28  10  46 W9        30.08F WCI  19
ELLSWORTH AFB  CLOUDY    29  17  63 SW8       30.07F WCI  21
PHILIP         CLOUDY    26  21  81 W9        30.11F WCI  17
PINE RIDGE     CLOUDY    26  14  60 W6        30.16F WCI  19
SPEARFISH      FAIR      37  18  44 W17G23    30.06F
WINNER         FAIR      29  19  66 SW9       30.15F WCI  20
$$

SDZ004>011-016>023-039-040-060900-
NORTHEAST SOUTH DAKOTA

CITY           SKY/WX    TMP DP  RH WIND       PRES   REMARKS
ABERDEEN       CLOUDY    23  19  85 S7        30.07F WCI  15
WATERTOWN      CLOUDY    14  10  84 S7        30.10F WCI   4
BROOKINGS      CLEAR     18  16  93 S6        30.13F FOG     WCI   9
SISSETON         N/A     28  20  71 W9        30.06F WCI  19
$$

SDZ017-020-022-023-036>040-048>070-060900-
SOUTHEAST SOUTH DAKOTA

CITY           SKY/WX    TMP DP  RH WIND       PRES   REMARKS
SIOUX FALLS    FOG       22  21  96 SW3       30.17F VSB 1/2
HURON          CLEAR     23  20  88 S8        30.13F WCI  14
CHAMBERLAIN    CLEAR     25  22  87 SW7       30.14F WCI  18
MITCHELL       CLEAR     25  22  88 SW9       30.17F WCI  15
YANKTON          N/A     21  19  93 SW7       30.21F VSB 1/2 WCI  13
$$

ABBREVIATIONS USED IN REMARKS
   TC - TEMPERATURE IN CELSIUS
  WCI - WIND CHILL INDEX
   HX - HEAT INDEX
  VSB - VISIBILITY




USA.gov is the U.S. government's official web portal to all federal, state and local government web resources and services.